Powrót do katalogu

STARLINK-32896

AktywnyŁącznośćVLEO
NORAD 62959·PAYLOAD·🇺🇸 United States

Wystrzelony Feb 11, 2025 z Vandenberg Space Force Base

Loading…

Następne Przeloty (najbliższe 24 godziny)

TLE

ŚwieżeSource: CelesTrak SupGP

Epoka: Sep 15, 2026, 03:33 UTC

1 62959C 25029M   26258.14840278 -.00027712  00000+0 -81907-3 0  2582
2 62959  53.1589  71.0712 0001231  86.5324 281.3493 15.34392800    13

Śledź STARLINK-32896 w czasie rzeczywistym z AllMySat

Download on the App Store